Weather History for Poteau, OK

Change the Weather History Date:

Tuesday, October 8, 2013

  Actual Average (KFSM) Record (KFSM)
Temperature  
Mean Temperature 60 °F 65 °F  
Max Temperature 77 °F 77 °F 96 °F (1963)
Min Temperature 42 °F 53 °F 31 °F (1952)
Degree Days  
Heating Degree Days 6 3  
Month to date heating degree days 19  
Since 1 July heating degree days 36  
Cooling Degree Days 0 3  
Month to date cooling degree days 30  
Year to date cooling degree days 2008  
Growing Degree Days 10 (Base 50)    
Moisture  
Dew Point 50 °F    
Average Humidity 79    
Maximum Humidity 100    
Minimum Humidity 41    
Precipitation  
Precipitation 0.00 in 0.13 in 3.05 in (1970)
Month to date precipitation 1.06  
Year to date precipitation 34.47  
Sea Level Pressure  
Sea Level Pressure 30.12 in    
Wind  
Wind Speed 1 mph (East)    
Max Wind Speed 8 mph    
Max Gust Speed -    
Visibility 9 miles    
Events Fog    
T = Trace of Precipitation, MM = Missing Value Source: NWS Daily Summary

Daily Weather History Graph

Daily Weather History Graph

Search for Another Location

Airport:

Trip Planner

Search our weather history database for the weather conditions in past years. The results will help you decide how hot, cold, wet, or windy it might be!

Date:

Astronomy

Oct. 08, 2013 Rise Set
Actual Time 7:18 AM CDT 6:52 PM CDT
Civil Twilight 6:53 AM CDT 7:17 PM CDT
Nautical Twilight 6:24 AM CDT 7:46 PM CDT
Astronomical Twilight 5:54 AM CDT 8:16 PM CDT
Moon 11:05 AM CDT (10/8) 9:38 PM CDT (10/8)
Length of Visible Light 12h 24m
Length of Day
11h 33m
Waxing Crescent, 16% of the Moon is Illuminated
Oct 8
Waxing Crescent
Oct 11
First Quarter
Oct 18
Full
Oct 26
Last Quarter
Nov 3
New

Hourly Weather History & Observations

Time (CDT) Temp. Dew Point Humidity Pressure Visibility Wind Dir Wind Speed Gust Speed Precip Events Conditions
12:15 AM 51.8 °F 51.8 °F 100% 30.13 in 10.0 mi Calm Calm - N/A   Unknown
12:35 AM 51.8 °F 51.8 °F 100% 30.13 in 7.0 mi Calm Calm - N/A   Unknown
12:55 AM 50.0 °F 50.0 °F 100% 30.13 in 1.0 mi Calm Calm - N/A   Mist
1:15 AM 51.8 °F 51.8 °F 100% 30.13 in 10.0 mi Calm Calm - N/A   Unknown
1:35 AM 51.8 °F 51.8 °F 100% 30.13 in 10.0 mi Calm Calm - N/A   Unknown
1:55 AM 48.2 °F 48.2 °F 100% 30.14 in 10.0 mi Calm Calm - N/A   Unknown
2:15 AM 48.2 °F 48.2 °F 100% 30.14 in 10.0 mi Calm Calm - N/A   Unknown
2:35 AM 46.4 °F 46.4 °F 100% 30.14 in 5.0 mi Calm Calm - N/A   Mist
2:55 AM 44.6 °F 44.6 °F 100% 30.14 in 10.0 mi Calm Calm - N/A   Unknown
3:15 AM 46.4 °F 46.4 °F 100% 30.14 in 10.0 mi Calm Calm - N/A   Unknown
3:35 AM 46.4 °F 46.4 °F 100% 30.14 in 10.0 mi Calm Calm - N/A   Unknown
3:55 AM 44.6 °F 44.6 °F 100% 30.14 in 10.0 mi Calm Calm - N/A   Unknown
4:15 AM 44.6 °F 44.6 °F 100% 30.14 in 2.0 mi Calm Calm - N/A   Mist
4:35 AM 44.6 °F 44.6 °F 100% 30.14 in 10.0 mi Calm Calm - N/A   Unknown
4:55 AM 44.6 °F 44.6 °F 100% 30.15 in 10.0 mi Calm Calm - N/A   Unknown
5:15 AM 44.6 °F 44.6 °F 100% 30.15 in 10.0 mi Calm Calm - N/A   Unknown
5:35 AM 44.6 °F 44.6 °F 100% 30.15 in 10.0 mi Calm Calm - N/A   Unknown
5:55 AM 42.8 °F 42.8 °F 100% 30.15 in 1.0 mi Calm Calm - N/A   Mist
6:15 AM 44.6 °F 44.6 °F 100% 30.15 in 0.5 mi Calm Calm - N/A Fog Fog
6:35 AM 42.8 °F 42.8 °F 100% 30.16 in 1.5 mi Calm Calm - N/A   Mist
6:55 AM 42.8 °F 42.8 °F 100% 30.16 in 4.0 mi Calm Calm - N/A   Mist
7:15 AM 42.8 °F 42.8 °F 100% 30.16 in 5.0 mi Calm Calm - N/A   Mist
7:35 AM 42.8 °F 42.8 °F 100% 30.16 in 7.0 mi Calm Calm - N/A   Unknown
7:55 AM 42.8 °F 42.8 °F 100% 30.16 in 10.0 mi Calm Calm - N/A   Unknown
8:15 AM 44.6 °F 44.6 °F 100% 30.17 in 10.0 mi Calm Calm - N/A   Unknown
8:35 AM 48.2 °F 48.2 °F 100% 30.17 in 2.0 mi Calm Calm - N/A   Mist
8:55 AM 51.8 °F 51.8 °F 100% 30.17 in 10.0 mi Calm Calm - N/A   Unknown
9:15 AM 53.6 °F 53.6 °F 100% 30.17 in 10.0 mi Calm Calm - N/A   Unknown
9:35 AM 55.4 °F 55.4 °F 100% 30.17 in 10.0 mi Calm Calm - N/A   Unknown
9:55 AM 59.0 °F 55.4 °F 88% 30.17 in 10.0 mi Calm Calm - N/A   Unknown
10:15 AM 60.8 °F 53.6 °F 77% 30.17 in 10.0 mi Calm Calm - N/A   Unknown
10:35 AM 62.6 °F 55.4 °F 77% 30.18 in 10.0 mi Calm Calm - N/A   Unknown
10:55 AM 66.2 °F 53.6 °F 64% 30.17 in 10.0 mi East 4.6 mph - N/A   Unknown
11:15 AM 68.0 °F 53.6 °F 60% 30.17 in 10.0 mi ESE 8.1 mph - N/A   Unknown
11:35 AM 68.0 °F 51.8 °F 56% 30.17 in 10.0 mi ESE 5.8 mph - N/A   Unknown
11:55 AM 71.6 °F 51.8 °F 50% 30.16 in 10.0 mi East 5.8 mph - N/A   Unknown
12:15 PM 71.6 °F 51.8 °F 50% 30.16 in 10.0 mi ENE 4.6 mph - N/A   Unknown
12:35 PM 71.6 °F 53.6 °F 53% 30.15 in 10.0 mi ENE 4.6 mph - N/A   Unknown
12:55 PM 71.6 °F 51.8 °F 50% 30.14 in 10.0 mi East 4.6 mph - N/A   Unknown
1:15 PM 71.6 °F 51.8 °F 50% 30.13 in 10.0 mi NE 3.5 mph - N/A   Unknown
1:35 PM 71.6 °F 51.8 °F 50% 30.13 in 10.0 mi ESE 4.6 mph - N/A   Unknown
1:55 PM 71.6 °F 50.0 °F 46% 30.11 in 10.0 mi ESE 3.5 mph - N/A   Unknown
2:15 PM 73.4 °F 51.8 °F 47% 30.10 in 10.0 mi ENE 4.6 mph - N/A   Unknown
2:35 PM 73.4 °F 51.8 °F 47% 30.09 in 10.0 mi ESE 4.6 mph - N/A   Unknown
2:55 PM 73.4 °F 51.8 °F 47% 30.08 in 4.0 mi Calm Calm - N/A   Haze
3:15 PM 73.4 °F 50.0 °F 44% 30.08 in 5.0 mi ENE 5.8 mph - N/A   Haze
3:35 PM 77.0 °F 51.8 °F 41% 30.07 in 0.5 mi ENE 3.5 mph - N/A   Haze
3:55 PM 77.0 °F 51.8 °F 41% 30.07 in 10.0 mi East 3.5 mph - N/A   Unknown
4:15 PM 77.0 °F 51.8 °F 41% 30.06 in 10.0 mi East 3.5 mph - N/A   Unknown
4:35 PM 77.0 °F 51.8 °F 41% 30.06 in 10.0 mi Calm Calm - N/A   Unknown
4:55 PM 77.0 °F 51.8 °F 41% 30.06 in 10.0 mi ESE 3.5 mph - N/A   Unknown
5:15 PM 77.0 °F 51.8 °F 41% 30.06 in 10.0 mi Calm Calm - N/A   Unknown
5:35 PM 77.0 °F 51.8 °F 41% 30.05 in 10.0 mi Calm Calm - N/A   Unknown
5:55 PM 73.4 °F 50.0 °F 44% 30.05 in 10.0 mi Calm Calm - N/A   Unknown
6:15 PM 71.6 °F 53.6 °F 53% 30.05 in 10.0 mi Calm Calm - N/A   Unknown
6:35 PM 71.6 °F 53.6 °F 53% 30.05 in 10.0 mi Calm Calm - N/A   Unknown
6:55 PM 69.8 °F 55.4 °F 60% 30.05 in 10.0 mi Calm Calm - N/A   Unknown
7:15 PM 62.6 °F 55.4 °F 77% 30.05 in 10.0 mi Calm Calm - N/A   Unknown
7:35 PM 60.8 °F 55.4 °F 82% 30.05 in 10.0 mi Calm Calm - N/A   Unknown
7:55 PM 60.8 °F 55.4 °F 82% 30.06 in 10.0 mi Calm Calm - N/A   Unknown
8:15 PM 59.0 °F 53.6 °F 82% 30.06 in 10.0 mi Calm Calm - N/A   Unknown
8:35 PM 59.0 °F 53.6 °F 82% 30.06 in 10.0 mi Calm Calm - N/A   Unknown
8:55 PM 55.4 °F 53.6 °F 94% 30.07 in 10.0 mi Calm Calm - N/A   Unknown
9:15 PM 59.0 °F 55.4 °F 88% 30.07 in 10.0 mi Calm Calm - N/A   Unknown
9:35 PM 55.4 °F 53.6 °F 94% 30.07 in 10.0 mi Calm Calm - N/A   Unknown
9:55 PM 55.4 °F 53.6 °F 94% 30.07 in 10.0 mi Calm Calm - N/A   Unknown
10:15 PM 55.4 °F 53.6 °F 94% 30.07 in 10.0 mi Calm Calm - N/A   Unknown
10:35 PM 53.6 °F 51.8 °F 94% 30.07 in 10.0 mi Calm Calm - N/A   Unknown
10:55 PM 55.4 °F 53.6 °F 94% 30.08 in 10.0 mi Calm Calm - N/A   Unknown
11:15 PM 53.6 °F 53.6 °F 100% 30.07 in 10.0 mi Calm Calm - N/A   Unknown
11:35 PM 51.8 °F 51.8 °F 100% 30.08 in 10.0 mi Calm Calm - N/A   Unknown
11:55 PM 51.8 °F 51.8 °F 100% 30.08 in 10.0 mi Calm Calm - N/A   Unknown